Regional Weather Roundup
Issued by NWS

Home | Current Version | Previous Version | Graphics & Text | Print | Product List | Glossary On
Versions: 1 2 3 4 5 6 7 8 9 10 11 12 13 14 15 16 17 18 19 20 21 22 23 24 25 26 27 28 29 30 31 32 33 34 35 36 37 38 39 40 41 42 43 44 45 46 47 48 49 50
000
ASUS43 KDTX 250201
RWRMI
MICHIGAN HOURLY REGIONAL WEATHER ROUNDUP
NATIONAL WEATHER SERVICE DETROIT/PONTIAC MI
1000 PM EDT SAT SEP 24 2016

NOTE: "FAIR" INDICATES FEW OR NO CLOUDS BELOW 12,000 FEET WITH NO
SIGNIFICANT WEATHER AND/OR OBSTRUCTION TO VISIBILITY.

MIZ047>049-052>055-059>063-066>070-074>076-081>083-250300-
SOUTHEAST LOWER MICHIGAN

CITY           SKY/WX    TMP DP  RH WIND       PRES   REMARKS
ADRIAN         CLEAR     60  55  83 SE5       30.21R
ALMA           CLEAR     53  50  89 E7        30.23R
ANN ARBOR      CLEAR     54  50  86 E3        30.21R
BAD AXE        CLEAR     46  44  95 CALM      30.25S
CARO           CLEAR     52  46  79 E3        30.23R
DETROIT CITY   CLEAR     58  47  66 NE3       30.22S
DETROIT        CLEAR     60  49  66 E5        30.22R
FLINT          CLEAR     55  46  71 E7        30.23R
GROSSE ILE     CLEAR     60  50  70 E7        30.21R
HILLSDALE      MOCLDY    59  52  77 E3        30.20R HAZE
HOWELL         CLEAR     56  49  78 E5        30.21S

CITY           SKY/WX    TMP DP  RH WIND       PRES   REMARKS
JACKSON        CLEAR     58  52  80 E5        30.20R
LAMBERTVILLE   CLEAR     57  55  92 CALM      30.20S
LANSING        CLEAR     56  49  77 NE5       30.22R
LAPEER         FAIR      49  46  90 S3        30.24S
MASON          CLEAR     56  51  83 CALM      30.21R
MONROE         CLEAR     59  54  84 NE5       30.20R
MT. CLEMENS    CLEAR     54  46  74 NE6       30.20S
PONTIAC        CLEAR     55  46  71 NE3       30.22R
PORT HOPE        N/A     62  47  57 E13       30.23S
PORT HURON     CLEAR     46  46 100 CALM      30.23F
TRI CITIES     CLEAR     54  46  74 E6        30.25R
MIDLAND        FAIR      52  47  82 CALM      30.23R
TROY           CLEAR     60  44  55 NE7       30.25R
SAGINAW HB     CLEAR     52  45  76 E3        30.24R
$$
MIZ043>046-050>051-056>058-064>065-071>073-077>080-250300-
SOUTHWEST LOWER MICHIGAN

CITY           SKY/WX    TMP DP  RH WIND       PRES   REMARKS
BATTLE CREEK   CLEAR     64  53  67 E6        30.20R
BENTON HARBOR  CLEAR     65  58  78 E5        30.16R
BIG RAPIDS     CLEAR     56  50  79 E3        30.22R
COLDWATER      CLEAR     62  55  78 E6        30.19R
FREMONT        FAIR      58  49  70 CALM      30.20S
HOLLAND        CLEAR     60  53  77 E6        30.19R
GRAND RAPIDS   CLEAR     58  51  78 E7        30.20R
IONIA          FAIR      57  48  73 NE8       30.21R
KALAMAZOO      CLEAR     63  54  72 E3        30.19R
LUDINGTON      CLEAR     53  52  97 E3        30.20R
MARSHALL       CLEAR     60  54  79 CALM      30.20R
MUSKEGON       CLEAR     61  53  75 E7        30.19R
SOUTH HAVEN    CLEAR     64  60  86 E5        30.17S
$$
MIZ016>042-250300-
NORTHERN LOWER MICHIGAN

CITY           SKY/WX    TMP DP  RH WIND       PRES   REMARKS
ALPENA         CLEAR     47  43  86 CALM      30.27S
BEAVER ISLAND  CLEAR     56  47  71 E8        30.24R
BELLAIRE       CLEAR     55  47  73 CALM      30.23R
CADILLAC       CLEAR     54  47  78 E3        30.23R
CHARLEVOIX     CLEAR     59  46  60 E10       30.26S
FRANKFORT      CLEAR     55  49  82 CALM      30.21R
GAYLORD        CLEAR     53  44  71 SE7       30.25R
GRAYLING       CLEAR     51  46  83 E3        30.26R
HARBOR SPRINGS CLEAR     53  45  73 NE7       30.25R
HOUGHTON LAKE  CLEAR     50  46  86 E6        30.25R
MANISTEE       CLEAR     55  52  89 E5        30.20R
OSCODA         CLEAR     48  43  81 CALM      30.24F
PELLSTON       CLEAR     46  42  86 CALM      30.26R
ROGERS CITY    CLEAR     53  44  71 SE5       30.27S
TRAVERSE CITY  CLEAR     57  49  74 CALM      30.20R
$$
MIZ007>008-015-250300-
EASTERN UPPER MICHIGAN

CITY           SKY/WX    TMP DP  RH WIND       PRES   REMARKS
KINROSS        CLEAR     52  44  74 S5        30.26R
MACKINAC ISLAN CLEAR     57  44  61 SE7       30.25S
NEWBERRY       CLEAR     51  47  88 SE5       30.24R
S. S. MARIE    CLEAR     53  44  71 CALM      30.25S
MUNISING         N/A     52  48  86 SW3       30.23R
$$
MIZ004>006-011>014-085-250300-
CENTRAL UPPER MICHIGAN

CITY           SKY/WX    TMP DP  RH WIND       PRES   REMARKS
MANISTIQUE     CLEAR     48  46  92 CALM      30.23R
ESCANABA       CLEAR     52  50  93 CALM      30.23R
SAWYER-GWINN   CLEAR     54  46  76 S3        30.24R
$$
MIZ001>003-009>011-084-250300-
WESTERN UPPER MICHIGAN

CITY           SKY/WX    TMP DP  RH WIND       PRES   REMARKS
IRON MOUNTAIN  MOCLDY    57  49  74 SE6       30.20S
HOUGHTON       CLEAR     59  53  80 SE7       30.18R
COPPER HARBOR    N/A     61  55  81 S9G18     30.19R
IRONWOOD       CLOUDY    63  54  72 SE5       30.14R
$$

ABBREVIATIONS USED IN REMARKS
   TC - TEMPERATURE IN CELSIUS
  WCI - WIND CHILL INDEX
   HX - HEAT INDEX
  VSB - VISIBILITY





USA.gov is the U.S. government's official web portal to all federal, state and local government web resources and services.